Iron Mountain, MI

8:46 AM CST on January 16, 2018 (GMT -0600)
Ford

Weather History for KIMT - March, 2014

Change the Weather History Date:

Tuesday, March 11, 2014

  Actual Average Record
Temperature  
Mean Temperature 36 °F -  
Max Temperature 44 °F 37 °F 61 °F (2012)
Min Temperature 25 °F 12 °F -27 °F (1948)
Degree Days  
Heating Degree Days 29    
Moisture  
Dew Point 24 °F    
Average Humidity 62    
Maximum Humidity 75    
Minimum Humidity 45    
Precipitation  
Precipitation 0.00 in - - ()
Sea Level Pressure  
Sea Level Pressure 29.76 in    
Wind  
Wind Speed 9 mph (NNW)    
Max Wind Speed 16 mph    
Max Gust Speed 22 mph    
Visibility 10 miles    
Events Snow    
Averages and records for this station are not official NWS values.
T = Trace of Precipitation, MM = Missing Value Source: NWS Daily Summary

Daily Weather History Graph

Daily Weather History Graph

Search for Another Location

Airport or City:

Trip Planner

Search our weather history database for the weather conditions in past years. The results will help you decide how hot, cold, wet, or windy it might be!

Date:

Astronomy

Mar. 11, 2014 Rise Set
Actual Time 7:12 AM CDT 6:52 PM CDT
Civil Twilight 6:42 AM CDT 7:22 PM CDT
Nautical Twilight 6:08 AM CDT 7:57 PM CDT
Astronomical Twilight 5:33 AM CDT 8:32 PM CDT
Moon 2:18 PM CDT (3/11) 4:17 AM CDT (3/11)
Length of Visible Light 12h 39m
Length of Day
11h 40m
Waxing Gibbous, 78% of the Moon is Illuminated
Mar 11
Waxing Gibbous
Mar 16
Full
Mar 23
Last Quarter
Mar 30
New
Apr 7
First Quarter

Hourly Weather History & Observations

Time (CDT) Temp. Windchill Dew Point Humidity Pressure Visibility Wind Dir Wind Speed Gust Speed Precip Events Conditions
12:54 AM 44.1 °F 40.8 °F 24.1 °F 45% 29.59 in 10.0 mi West 5.8 mph - N/A   Clear
1:54 AM 42.1 °F 38.4 °F 25.0 °F 51% 29.59 in 10.0 mi WNW 5.8 mph - N/A   Clear
2:54 AM 43.0 °F 37.7 °F 25.0 °F 49% 29.61 in 10.0 mi WNW 9.2 mph - N/A   Clear
3:54 AM 37.9 °F 32.1 °F 26.1 °F 62% 29.61 in 10.0 mi NW 8.1 mph - N/A   Clear
4:54 AM 37.0 °F 29.8 °F 26.1 °F 65% 29.62 in 10.0 mi NW 10.4 mph - N/A   Clear
5:54 AM 37.0 °F 29.8 °F 26.1 °F 65% 29.65 in 10.0 mi NW 10.4 mph - N/A   Clear
6:54 AM 35.1 °F 29.3 °F 26.1 °F 70% 29.67 in 10.0 mi NNW 6.9 mph - N/A   Clear
7:54 AM 35.1 °F 28.6 °F 27.0 °F 72% 29.69 in 10.0 mi NNW 8.1 mph - N/A   Clear
8:54 AM 36.0 °F 28.5 °F 26.1 °F 67% 29.72 in 10.0 mi NW 10.4 mph - N/A   Clear
9:54 AM 37.0 °F 28.9 °F 26.1 °F 65% 29.73 in 10.0 mi NNW 12.7 mph 20.7 mph N/A   Clear
10:54 AM 37.9 °F 30.9 °F 26.1 °F 62% 29.75 in 10.0 mi NNW 10.4 mph - N/A   Clear
11:54 AM 37.9 °F 30.5 °F 25.0 °F 60% 29.77 in 10.0 mi NNW 11.5 mph - N/A   Clear
12:54 PM 39.0 °F 32.8 °F 26.1 °F 60% 29.78 in 10.0 mi NNW 9.2 mph - N/A   Partly Cloudy
1:54 PM 39.0 °F 31.8 °F 25.0 °F 57% 29.78 in 10.0 mi NNW 11.5 mph - N/A   Overcast
2:54 PM 39.0 °F 31.0 °F 24.1 °F 55% 29.78 in 10.0 mi North 13.8 mph - N/A   Overcast
3:54 PM 39.0 °F 32.3 °F 24.1 °F 55% 29.79 in 10.0 mi NNW 10.4 mph - N/A   Mostly Cloudy
4:54 PM 37.9 °F 31.5 °F 24.1 °F 57% 29.81 in 10.0 mi NNW 9.2 mph - N/A   Mostly Cloudy
5:54 PM 37.9 °F 31.5 °F 23.0 °F 55% 29.82 in 10.0 mi NNW 9.2 mph - N/A   Overcast
6:54 PM 35.1 °F 27.9 °F 24.1 °F 64% 29.85 in 10.0 mi North 9.2 mph - N/A   Overcast
7:54 PM 35.1 °F 26.9 °F 21.0 °F 57% 29.88 in 10.0 mi North 11.5 mph - N/A   Overcast
8:54 PM 32.0 °F 26.4 °F 23.0 °F 69% 29.90 in 10.0 mi NE 5.8 mph - N/A   Overcast
9:54 PM 30.0 °F 23.2 °F 23.0 °F 75% 29.91 in 10.0 mi ENE 6.9 mph - N/A   Overcast
10:09 PM 30.2 °F 21.9 °F 23.0 °F 75% 29.87 in 10.0 mi NNE 9.2 mph - N/A   Overcast
10:54 PM 28.0 °F 16.1 °F 19.9 °F 72% 29.94 in 8.0 mi NNE 16.1 mph 21.9 mph 0.00 in Snow Light Snow
11:54 PM 25.0 °F 15.5 °F 17.1 °F 72% 29.94 in 7.0 mi NNE 9.2 mph 18.4 mph 0.00 in Snow Light Snow